[[{"header":{"parameterUnit":"m.s-1","parameterCategory":2,"la1":30.2991,"la2":30.254,"lo1":-89.0895,"lo2":-89.0444,"dy":0.0017,"dx":0.0017,"nx":28,"ny":28,"refTime":"2024-03-14T03:00:00:Z","depth":"0","parameterNumber":2,"parameterNumberName":"U-component_of_CURRENTS"},"data":[0,0,0,0,0,0,0,0,0,0,0,0,0,0,0,0,0,0,0,0,0,0,0,0,0,0,0,0,0,0,0,0,0,0,0,0,0,0,0,0,0,0,0,0,0,0,0,0,0,0,0,0,0,0,0,0,0,0,0.3059,0.3059,0,0.3066,0.3066,0.3066,0.3046,0.3045,0.3045,0.3044,0.3038,0.3038,0.3038,0,0,0,0,0,0,0,0,0,0,0,0,0,0.3054,0.3053,0.3059,0.3059,0.3059,0.3066,0.3066,0.3066,0.3046,0.3045,0.3045,0.3044,0.3038,0.3038,0.3038,0,0,0,0,0,0,0,0,0,0,0,0,0,0.3056,0.3053,0.3059,0.3052,0.3051,0.3067,0.3066,0.3066,0.3046,0.3045,0.3044,0.3044,0.3038,0.3038,0.3039,0.3053,0,0,0.304,0.304,0,0,0,0,0,0,0,0,0.3055,0.3055,0.3052,0.3052,0.3052,0.3056,0.3062,0.3062,0.3046,0.3045,0.3044,0.3044,0.3045,0.3045,0.3044,0.3053,0.3053,0.304,0.304,0.304,0.304,0,0,0,0,0,0,0,0.3055,0.3055,0.3059,0.3053,0.3053,0.3058,0.3057,0.3062,0.3046,0.3045,0.3044,0.3049,0.3044,0.3044,0.3044,0.3053,0.304,0.304,0.304,0.304,0.3105,0.3106,0,0,0,0,0,0,0.3058,0.3055,0.3059,0.306,0.3055,0.3058,0.3057,0.3054,0.3047,0.3046,0.305,0.3048,0.3044,0.3044,0.3044,0.3094,0.304,0.304,0.304,0.3103,0.3105,0.3107,0,0,0,0,0,0,0.3058,0.3058,0.3059,0.306,0.3061,0.3059,0.3055,0.3054,0.3058,0.3051,0.3049,0.3056,0.3043,0.3043,0.3059,0.3092,0.304,0.3041,0.3102,0.3104,0.3106,0.3173,0,0,0,0,0,0,0.3058,0.3058,0.3061,0.306,0.3061,0.3078,0.3056,0.3055,0.3063,0.3061,0.3055,0.3054,0.3043,0.3059,0.306,0.3091,0.3041,0.31,0.3103,0.3105,0.3169,0.3177,0.3184,0,0,0,0,0,0.3057,0.3064,0.3061,0.3062,0.3063,0.3079,0.308,0.3075,0.3064,0.3074,0.307,0.3054,0.3078,0.3061,0.3061,0.3094,0.3098,0.3102,0.3105,0.3165,0.3175,0.3184,0,0,0,0,0,0,0.3058,0.3063,0.3059,0.3064,0.3076,0.3076,0.3086,0.3082,0.3087,0.3084,0.307,0.3069,0.3099,0.3087,0.3068,0.3121,0.3087,0.3091,0.3132,0.3142,0.315,0.3143,0.3041,0,0,0,0,0,0.3062,0.3071,0.3075,0.3083,0.3088,0.3088,0.3095,0.3094,0.3097,0.3098,0.3094,0.3097,0.3114,0.3119,0.3128,0.3152,0.3181,0.3175,0.3183,0.319,0.3185,0.328,0.3296,0.3118,0.3118,0.3118,0,0,0.3061,0.307,0.3072,0.3085,0.309,0.3102,0.309,0.3106,0.3118,0.3098,0.3114,0.3125,0.3128,0.316,0.3172,0.3152,0.3258,0.3194,0.32,0.3191,0.3285,0.3303,0.3318,0.312,0.312,0.312,0,0,0.3076,0.3076,0.309,0.3099,0.3117,0.3122,0.3129,0.3136,0.3142,0.3162,0.3159,0.3188,0.3197,0.3215,0.3224,0.3279,0.33,0.3286,0.3317,0.341,0.3426,0.344,0.3512,0.3532,0.3287,0.3287,0.3287,0,0.3078,0.3089,0.3098,0.3114,0.3124,0.3131,0.3146,0.3157,0.317,0.3198,0.3173,0.3238,0.3225,0.3293,0.3296,0.3297,0.335,0.3281,0.3422,0.3436,0.345,0.352,0.3542,0.3291,0.329,0.329,0.329,0,0.3096,0.3107,0.3118,0.3137,0.3156,0.317,0.3187,0.3214,0.3222,0.3242,0.3311,0.3311,0.3359,0.3358,0.333,0.3426,0.3434,0.3427,0.34,0.3472,0.3542,0.3563,0.3296,0.3295,0.3294,0.3293,0,0,0.3086,0.3122,0.3124,0.3142,0.3166,0.3185,0.3224,0.3275,0.3324,0.3345,0.342,0.3432,0.3458,0.3468,0.3469,0.3513,0.3633,0.35,0.3503,0.3574,0.3844,0.3808,0.3827,0.3666,0.367,0.3673,0.386,0,0.3094,0.3129,0.3146,0.318,0.3199,0.3228,0.3268,0.3321,0.3367,0.3443,0.3483,0.3546,0.3497,0.3534,0.358,0.3623,0.3689,0.3582,0.376,0.3765,0.3727,0.3851,0.3692,0.3842,0.3881,0.3884,0.3887,0,0.3096,0.3127,0.316,0.3217,0.3228,0.3252,0.3343,0.3382,0.3493,0.3536,0.3627,0.3669,0.3751,0.3692,0.3833,0.3777,0.3813,0.3832,0.3842,0.3794,0.3768,0.3774,0.3879,0.3765,0.3919,0.3916,0.3914,0,0.3089,0.3133,0.3165,0.3175,0.3241,0.3277,0.3319,0.3418,0.348,0.3614,0.3689,0.3803,0.3875,0.3949,0.3987,0.3934,0.4139,0.4085,0.4097,0.4095,0.3983,0.3964,0.3995,0.4202,0.4201,0.4201,0.42,0,0.3087,0.3113,0.3163,0.3181,0.324,0.3282,0.3367,0.3435,0.3552,0.3649,0.3743,0.3856,0.3942,0.4064,0.4075,0.417,0.4238,0.4131,0.4156,0.4001,0.3983,0.3893,0.3838,0.4208,0.4206,0.4205,0.4204,0,0.3077,0.3103,0.3148,0.3214,0.3237,0.3282,0.3381,0.3451,0.356,0.3698,0.3751,0.3937,0.4094,0.418,0.4314,0.4292,0.4254,0.4383,0.4183,0.418,0.4032,0.3987,0.3912,0.3799,0.4426,0.4426,0.4427,0,0.3072,0.3095,0.3165,0.3199,0.3228,0.3295,0.3348,0.3447,0.3522,0.3746,0.3817,0.4028,0.4155,0.4359,0.438,0.4455,0.4299,0.4334,0.4183,0.4032,0.4001,0.3823,0.3719,0.4072,0.4069,0.4067,0.4065,0,0.3076,0.3102,0.3143,0.3208,0.3257,0.3311,0.3386,0.3437,0.357,0.3687,0.3865,0.399,0.4205,0.423,0.4337,0.4348,0.4112,0.4292,0.42,0.3786,0.3532,0.3431,0.3933,0.4047,0.4049,0.405,0.4051,0.4052,0.3074,0.3101,0.3156,0.3204,0.3263,0.33,0.3295,0.3392,0.3484,0.3598,0.3802,0.3911,0.4036,0.4167,0.4153,0.403,0.401,0.3895,0.3878,0.3728,0.3528,0.3982,0.4078,0.4079,0.4081,0.4083,0.4084,0,0.3048,0.3085,0.3147,0.3184,0.3201,0.3246,0.3295,0.326,0.33,0.3473,0.3589,0.37,0.3732,0.3782,0.376,0.3634,0.3432,0.3536,0.3238,0.3175,0.3652,0.3543,0.3448,0.3448,0.3448,0.3448,0.3448,0.3449,0.3038,0.307,0.3091,0.3092,0.3107,0.3057,0.3037,0.3025,0.309,0.3134,0.3183,0.3302,0.3463,0.3519,0.3392,0.331,0.3046,0.2922,0.2921,0.325,0.328,0.3308,0.3192,0.3025,0.3024,0.228,0.2275,0.227]},{"header":{"parameterUnit":"m.s-1","parameterCategory":2,"la1":30.2991,"la2":30.254,"lo1":-89.0895,"lo2":-89.0444,"dy":0.0017,"dx":0.0017,"nx":28,"ny":28,"refTime":"2024-03-14T03:00:00:Z","depth":"0","parameterNumber":3,"parameterNumberName":"V-component_of_CURRENTS"},"data":[0,0,0,0,0,0,0,0,0,0,0,0,0,0,0,0,0,0,0,0,0,0,0,0,0,0,0,0,0,0,0,0,0,0,0,0,0,0,0,0,0,0,0,0,0,0,0,0,0,0,0,0,0,0,0,0,0,0,0.0159,0.0159,0,0.0106,0.0106,0.0105,0.0061,0.0061,0.0061,0.0061,-0.0016,-0.0018,-0.002,0,0,0,0,0,0,0,0,0,0,0,0,0,0.0167,0.0168,0.0159,0.0159,0.0158,0.0106,0.0105,0.0104,0.0061,0.0061,0.0061,0.0061,-0.0015,-0.0017,-0.002,0,0,0,0,0,0,0,0,0,0,0,0,0,0.0142,0.0168,0.0159,0.0132,0.013,0.0107,0.0105,0.0104,0.0061,0.0061,0.0061,0.006,-0.0015,-0.0017,-0.002,-0.0031,0,0,-0.0028,-0.003,0,0,0,0,0,0,0,0,0.0143,0.0141,0.0137,0.0134,0.0131,0.0093,0.008,0.0059,0.0061,0.0084,0.0061,0.006,0.002,0.0015,0.0002,-0.0035,-0.0038,-0.0029,-0.003,-0.0032,-0.0032,0,0,0,0,0,0,0,0.0145,0.0143,0.0135,0.0136,0.0133,0.0105,0.0101,0.0076,0.0052,0.0082,0.008,0.0078,0.0018,0.0004,-0.0,-0.0039,-0.0029,-0.0031,-0.0033,-0.0034,-0.0086,-0.0086,0,0,0,0,0,0,0.0161,0.0145,0.0137,0.0134,0.014,0.0105,0.0101,0.0103,0.0053,0.0046,0.0079,0.0077,0.0009,0.0003,-0.0003,0.0001,-0.0032,-0.0034,-0.0036,-0.0086,-0.0086,-0.0085,0,0,0,0,0,0,0.0161,0.0161,0.0139,0.014,0.0136,0.0106,0.0108,0.0102,0.0092,0.0051,0.0043,0.0076,0.0009,0.0001,-0.0018,-0.0003,-0.0035,-0.0038,-0.0086,-0.0086,-0.0086,-0.0004,0,0,0,0,0,0,0.0162,0.0161,0.0167,0.0141,0.0136,0.0136,0.0109,0.0101,0.0093,0.009,0.0046,0.0038,0.0008,-0.0014,-0.0021,-0.0008,-0.004,-0.0087,-0.0086,-0.0086,-0.0007,-0.0001,0.0004,0,0,0,0,0,0.0162,0.0176,0.0168,0.0167,0.0146,0.0137,0.0132,0.0107,0.0094,0.0096,0.0065,0.004,-0.0016,-0.0015,-0.0024,-0.0011,-0.0087,-0.0086,-0.0086,-0.001,-0.0002,0.0004,0,0,0,0,0,0,0.0182,0.0172,0.0163,0.0173,0.0161,0.0131,0.013,0.0114,0.0091,0.0087,0.0045,0.0035,0.0022,-0.0007,-0.0006,-0.0027,-0.0056,-0.0057,0.0005,0.0011,0.0017,0.0052,-0.0042,0,0,0,0,0,0.0191,0.0199,0.0182,0.019,0.0186,0.0159,0.0152,0.0138,0.0116,0.0105,0.0075,0.0042,0.0017,0.0006,-0.0023,-0.0031,-0.0043,-0.0031,-0.0025,-0.002,0.0003,-0.0006,0.0001,-0.0083,-0.0083,-0.0083,0,0,0.0199,0.0197,0.0199,0.0195,0.0181,0.0189,0.0154,0.0151,0.0159,0.0101,0.0098,0.006,0.0018,0.0008,0.0,-0.0012,-0.0003,-0.0019,-0.0014,0.0006,-0.0005,0.0004,0.0011,-0.0083,-0.0083,-0.0083,0,0,0.0229,0.0219,0.0239,0.0234,0.0226,0.0212,0.0216,0.0193,0.0184,0.0175,0.0137,0.0113,0.0072,0.005,0.0033,0.0053,0.0026,0.0038,0.0101,0.0091,0.0099,0.0106,0.0103,0.0109,0.0044,0.0044,0.0044,0,0.0243,0.0263,0.0242,0.0261,0.0267,0.0229,0.0254,0.0239,0.0214,0.0221,0.0186,0.0142,0.0095,0.01,0.01,0.0068,0.0063,0.008,0.0102,0.0108,0.0113,0.0109,0.0114,0.0048,0.0048,0.0047,0.0047,0,0.0284,0.0302,0.0313,0.0327,0.0331,0.0342,0.0327,0.0329,0.0308,0.0295,0.0291,0.0229,0.0213,0.0182,0.0143,0.0161,0.0146,0.0109,0.0091,0.0127,0.012,0.0124,0.0054,0.0052,0.0051,0.005,0,0,0.032,0.034,0.0346,0.0377,0.0368,0.0388,0.04,0.0415,0.0452,0.0401,0.0447,0.0369,0.0344,0.0323,0.0271,0.0251,0.0264,0.0204,0.0201,0.0215,0.0259,0.0235,0.0236,0.0237,0.0238,0.0239,0.024,0,0.0362,0.0422,0.0414,0.0476,0.0509,0.0489,0.0517,0.0526,0.0519,0.0552,0.049,0.0504,0.0397,0.0404,0.0364,0.03,0.0279,0.0268,0.0211,0.021,0.0195,0.0241,0.0225,0.0224,0.0244,0.0245,0.0245,0,0.0413,0.045,0.0519,0.058,0.0594,0.0625,0.0686,0.0706,0.0725,0.0723,0.0713,0.0676,0.0648,0.0553,0.0459,0.0462,0.0373,0.0305,0.0303,0.026,0.0193,0.0189,0.0231,0.0037,0.0251,0.025,0.025,0,0.0477,0.0532,0.0598,0.0613,0.0665,0.0706,0.0736,0.0766,0.0816,0.0851,0.0899,0.0839,0.0847,0.0722,0.0567,0.0526,0.0471,0.0393,0.0287,0.0284,0.025,0.0242,0.0111,0.0334,0.0334,0.0334,0.0334,0,0.0536,0.0595,0.064,0.0682,0.0782,0.0791,0.0897,0.0917,0.0979,0.1073,0.1005,0.1075,0.0892,0.0832,0.0653,0.0501,0.0535,0.0322,0.0291,0.0276,0.0271,0.0083,-0.0014,0.0334,0.0334,0.0334,0.0334,0,0.0607,0.0626,0.0717,0.0788,0.0819,0.0898,0.1001,0.1081,0.1123,0.1251,0.128,0.1274,0.1201,0.1003,0.0827,0.0638,0.0369,0.0407,0.0406,0.0374,0.0069,-0.002,-0.0148,-0.0229,0.0292,0.0292,0.0291,0,0.0652,0.0705,0.0804,0.0866,0.0904,0.1011,0.109,0.115,0.1244,0.1382,0.1464,0.1454,0.1477,0.1212,0.0879,0.059,0.0386,0.0368,0.0266,0.0074,-0.005,-0.012,-0.0185,0.0251,0.0251,0.025,0.025,0,0.0746,0.0777,0.0846,0.0967,0.1063,0.1177,0.1297,0.1391,0.1491,0.162,0.1783,0.1826,0.1591,0.1318,0.0911,0.0678,0.0233,0.0346,0.0147,-0.008,-0.0163,-0.0262,0.0229,0.0245,0.0245,0.0245,0.0246,0.0246,0.0814,0.0875,0.096,0.1077,0.1193,0.1338,0.1442,0.1589,0.1772,0.1981,0.2006,0.2111,0.1683,0.1139,0.0818,0.0186,0.0199,-0.0029,-0.0115,-0.0164,-0.0265,0.0222,0.0196,0.0196,0.0197,0.0197,0.0197,0,0.0887,0.0948,0.1064,0.1206,0.1345,0.1386,0.1578,0.1699,0.1931,0.2137,0.2288,0.2124,0.1606,0.1043,0.0209,-0.0205,-0.0362,-0.0437,-0.056,-0.06,-0.0168,-0.0197,-0.0309,-0.0309,-0.0309,-0.0309,-0.0308,-0.0308,0.0924,0.1031,0.1084,0.1309,0.1416,0.1594,0.1702,0.1904,0.2075,0.2318,0.2389,0.24,0.1923,0.0529,-0.0441,-0.0663,-0.0924,-0.0981,-0.1101,-0.0845,-0.0815,-0.0786,-0.0838,-0.1082,-0.1083,-0.1506,-0.1511,-0.1514]}],[{"header":{"parameterUnit":"m.s-1","parameterCategory":2,"la1":30.2991,"la2":30.254,"lo1":-89.0895,"lo2":-89.0444,"dy":0.0017,"dx":0.0017,"nx":28,"ny":28,"refTime":"2024-03-14T03:00:00:Z","depth":"2","parameterNumber":2,"parameterNumberName":"U-component_of_CURRENTS"},"data":[0,0,0,0,0,0,0,0,0,0,0,0,0,0,0,0,0,0,0,0,0,0,0,0,0,0,0,0,0,0,0,0,0,0,0,0,0,0,0,0,0,0,0,0,0,0,0,0,0,0,0,0,0,0,0,0,0,0,0.2397,0.2397,0,0.242,0.242,0.242,0.2431,0.2431,0.2432,0.2432,0.2455,0.2456,0.2456,0,0,0,0,0,0,0,0,0,0,0,0,0,0.2356,0.2357,0.2397,0.2397,0.2398,0.242,0.242,0.242,0.2431,0.2431,0.2432,0.2432,0.2455,0.2455,0.2456,0,0,0,0,0,0,0,0,0,0,0,0,0,0.2374,0.2357,0.2397,0.2407,0.2409,0.242,0.242,0.242,0.2431,0.2431,0.2432,0.2432,0.2455,0.2455,0.2456,0.2456,0,0,0.2458,0.2459,0,0,0,0,0,0,0,0,0.2373,0.2375,0.2405,0.2407,0.2408,0.2425,0.2414,0.2433,0.2431,0.2421,0.2432,0.2432,0.2446,0.2447,0.2449,0.2457,0.2458,0.2458,0.2459,0.2459,0.2459,0,0,0,0,0,0,0,0.2372,0.2374,0.2404,0.2406,0.2408,0.2409,0.2411,0.2418,0.243,0.2422,0.2423,0.2428,0.2446,0.2448,0.2449,0.2458,0.2458,0.2459,0.2459,0.246,0.2525,0.2527,0,0,0,0,0,0,0.2373,0.2373,0.2404,0.2405,0.2393,0.2409,0.2412,0.2418,0.243,0.2433,0.2428,0.2429,0.2447,0.2448,0.245,0.2506,0.2459,0.246,0.246,0.2524,0.2526,0.2527,0,0,0,0,0,0,0.2372,0.2375,0.2403,0.2391,0.2395,0.241,0.2416,0.2418,0.2434,0.2435,0.2438,0.2444,0.2447,0.2449,0.2474,0.2505,0.246,0.2461,0.2523,0.2525,0.2526,0.2582,0,0,0,0,0,0,0.237,0.2375,0.2381,0.2391,0.2396,0.2423,0.2416,0.2418,0.2437,0.2438,0.2449,0.2451,0.2447,0.2473,0.2475,0.2505,0.2461,0.2521,0.2524,0.2526,0.2579,0.2586,0.2592,0,0,0,0,0,0.2369,0.2373,0.2381,0.2385,0.2403,0.2424,0.2427,0.2437,0.2438,0.2451,0.246,0.2451,0.249,0.2475,0.2476,0.2508,0.252,0.2523,0.2526,0.2576,0.2585,0.2592,0,0,0,0,0,0,0.236,0.2375,0.2384,0.2393,0.2416,0.2427,0.2441,0.2446,0.2463,0.2467,0.2465,0.2468,0.2504,0.2496,0.2479,0.2534,0.2505,0.2508,0.2543,0.2551,0.2557,0.2564,0.2462,0,0,0,0,0,0.2362,0.2366,0.239,0.2398,0.2416,0.2432,0.2442,0.2451,0.2466,0.2474,0.2484,0.2496,0.2515,0.2525,0.2538,0.2563,0.2583,0.2585,0.2592,0.2598,0.2605,0.2678,0.2693,0.2537,0.2537,0.2537,0,0,0.2363,0.2368,0.2374,0.2397,0.2416,0.2443,0.2439,0.2463,0.2481,0.2473,0.2505,0.2522,0.2528,0.2562,0.2578,0.256,0.2651,0.2601,0.2606,0.2611,0.2683,0.2699,0.2712,0.2539,0.2539,0.2538,0,0,0.2368,0.2377,0.2391,0.2409,0.244,0.2454,0.2467,0.2495,0.2507,0.2537,0.2543,0.258,0.2597,0.2617,0.2626,0.2676,0.2687,0.2681,0.2718,0.2789,0.2803,0.2815,0.2855,0.287,0.2681,0.2681,0.2681,0,0.237,0.2386,0.24,0.2421,0.2438,0.2464,0.2492,0.2508,0.2538,0.2564,0.2555,0.2625,0.2625,0.2682,0.2696,0.2692,0.2726,0.2686,0.28,0.2812,0.2824,0.2861,0.2878,0.2684,0.2684,0.2683,0.2683,0,0.239,0.2406,0.2419,0.2451,0.2475,0.2499,0.2531,0.2566,0.2587,0.2609,0.2675,0.2689,0.2739,0.2742,0.2729,0.2815,0.281,0.2804,0.2781,0.2843,0.2878,0.2894,0.2688,0.2687,0.2686,0.2686,0,0,0.2384,0.2425,0.2429,0.2451,0.249,0.2514,0.2559,0.2615,0.2656,0.2697,0.276,0.2794,0.2825,0.2837,0.2843,0.2888,0.2987,0.2881,0.2883,0.2922,0.3138,0.3076,0.3087,0.3013,0.3016,0.3018,0.3127,0,0.2399,0.2433,0.2451,0.2496,0.2523,0.2562,0.2599,0.2652,0.2696,0.2765,0.2811,0.2875,0.2854,0.2894,0.2941,0.2989,0.3034,0.2957,0.3069,0.3072,0.3012,0.3105,0.286,0.2932,0.3142,0.3145,0.3147,0,0.2415,0.2432,0.2473,0.2521,0.254,0.2574,0.2655,0.2692,0.2789,0.283,0.2916,0.2959,0.3055,0.3017,0.3145,0.3105,0.3127,0.3145,0.315,0.3084,0.3041,0.2905,0.2953,0.3173,0.3171,0.3169,0.3168,0,0.2399,0.2449,0.248,0.2494,0.2554,0.2594,0.264,0.2723,0.2781,0.2896,0.2972,0.3069,0.3157,0.3211,0.326,0.3225,0.3382,0.334,0.3298,0.3293,0.31,0.3072,0.3423,0.3423,0.3422,0.3422,0.3422,0,0.2392,0.2418,0.2481,0.2491,0.2544,0.2594,0.267,0.2728,0.2844,0.2926,0.3019,0.311,0.3217,0.3314,0.3318,0.3375,0.3445,0.3329,0.3333,0.311,0.3084,0.3299,0.3283,0.3426,0.3425,0.3424,0.3424,0,0.2363,0.2399,0.2446,0.2515,0.2534,0.2583,0.2694,0.2749,0.2869,0.2989,0.3047,0.3205,0.3325,0.3399,0.3498,0.3466,0.3503,0.3491,0.3209,0.3178,0.3343,0.3329,0.3468,0.3467,0.3466,0.3466,0.3465,0,0.2342,0.2363,0.2449,0.2468,0.2499,0.2575,0.2614,0.2745,0.2812,0.3026,0.308,0.3264,0.3334,0.347,0.3461,0.3484,0.3516,0.3253,0.3132,0.3366,0.3357,0.3343,0.3331,0.2894,0.2889,0.2885,0.2882,0,0.2304,0.2355,0.2382,0.2417,0.2466,0.2531,0.261,0.2674,0.2828,0.293,0.3062,0.3148,0.3302,0.3226,0.3282,0.3247,0.3231,0.3168,0.3525,0.2919,0.2834,0.2821,0.2826,0.2844,0.2848,0.285,0.2852,0.2854,0.2268,0.2291,0.2326,0.2359,0.2413,0.2463,0.246,0.2552,0.2638,0.2739,0.291,0.2944,0.3017,0.2973,0.2899,0.2861,0.3067,0.2918,0.2928,0.2943,0.2855,0.2774,0.2754,0.2757,0.276,0.2762,0.2765,0,0.2205,0.2224,0.2252,0.2281,0.2292,0.2372,0.242,0.2382,0.24,0.254,0.2609,0.2456,0.2446,0.2518,0.2413,0.2426,0.2365,0.2319,0.2211,0.2254,0.229,0.2164,0.1882,0.1879,0.1876,0.1873,0,0,0.2166,0.2153,0.2182,0.2154,0.2177,0.2127,0.2131,0.2079,0.2113,0.2099,0.2115,0.2326,0.2458,0.2127,0.2102,0.1971,0.2081,0.1896,0.2617,0.2533,0.2564,0.2666,0.2525,0,0,0,0,0]},{"header":{"parameterUnit":"m.s-1","parameterCategory":2,"la1":30.2991,"la2":30.254,"lo1":-89.0895,"lo2":-89.0444,"dy":0.0017,"dx":0.0017,"nx":28,"ny":28,"refTime":"2024-03-14T03:00:00:Z","depth":"2","parameterNumber":3,"parameterNumberName":"V-component_of_CURRENTS"},"data":[0,0,0,0,0,0,0,0,0,0,0,0,0,0,0,0,0,0,0,0,0,0,0,0,0,0,0,0,0,0,0,0,0,0,0,0,0,0,0,0,0,0,0,0,0,0,0,0,0,0,0,0,0,0,0,0,0,0,-0.0005,-0.0006,0,-0.0049,-0.0049,-0.005,-0.0084,-0.0085,-0.0085,-0.0085,-0.015,-0.0151,-0.0153,0,0,0,0,0,0,0,0,0,0,0,0,0,0.0005,0.0005,-0.0005,-0.0006,-0.0006,-0.0049,-0.0049,-0.005,-0.0084,-0.0085,-0.0085,-0.0085,-0.0149,-0.0151,-0.0153,0,0,0,0,0,0,0,0,0,0,0,0,0,-0.0016,0.0005,-0.0005,-0.0028,-0.003,-0.0049,-0.0049,-0.005,-0.0084,-0.0085,-0.0085,-0.0085,-0.0149,-0.0151,-0.0153,-0.016,0,0,-0.016,-0.0161,0,0,0,0,0,0,0,0,-0.0015,-0.0016,-0.0024,-0.0026,-0.0029,-0.0061,-0.0069,-0.0088,-0.0084,-0.0065,-0.0085,-0.0086,-0.0121,-0.0125,-0.0134,-0.0163,-0.0165,-0.016,-0.0161,-0.0162,-0.0163,0,0,0,0,0,0,0,-0.0013,-0.0015,-0.0024,-0.0024,-0.0027,-0.005,-0.0053,-0.0073,-0.0092,-0.0067,-0.0069,-0.0072,-0.0123,-0.0132,-0.0136,-0.0166,-0.016,-0.0162,-0.0163,-0.0164,-0.0202,-0.0202,0,0,0,0,0,0,-0.0003,-0.0013,-0.0022,-0.0025,-0.0021,-0.005,-0.0053,-0.0051,-0.0091,-0.0097,-0.0072,-0.0073,-0.0128,-0.0133,-0.0138,-0.0137,-0.0162,-0.0164,-0.0166,-0.0203,-0.0202,-0.0202,0,0,0,0,0,0,-0.0002,-0.0003,-0.0021,-0.002,-0.0023,-0.0049,-0.0047,-0.0052,-0.0059,-0.0094,-0.0101,-0.0073,-0.0128,-0.0135,-0.0149,-0.014,-0.0165,-0.0167,-0.0203,-0.0202,-0.0202,-0.0142,0,0,0,0,0,0,-0.0002,-0.0002,0.0002,-0.0019,-0.0023,-0.0023,-0.0046,-0.0052,-0.006,-0.0062,-0.0098,-0.0104,-0.0129,-0.0146,-0.0151,-0.0144,-0.0169,-0.0203,-0.0203,-0.0202,-0.0144,-0.0139,-0.0135,0,0,0,0,0,-0.0001,0.0011,0.0002,0.0001,-0.0016,-0.0022,-0.0026,-0.0048,-0.0059,-0.0057,-0.0081,-0.0103,-0.0146,-0.0147,-0.0154,-0.0147,-0.0204,-0.0203,-0.0202,-0.0146,-0.014,-0.0135,0,0,0,0,0,0,0.0018,0.0008,-0.0002,0.0007,-0.0004,-0.0028,-0.0028,-0.0042,-0.0059,-0.0062,-0.0098,-0.0106,-0.0116,-0.0139,-0.0139,-0.0156,-0.0179,-0.018,-0.0134,-0.0129,-0.0124,-0.0105,-0.0171,0,0,0,0,0,0.0024,0.003,0.0016,0.0021,0.0019,-0.0004,-0.001,-0.0022,-0.004,-0.0048,-0.0073,-0.0099,-0.0119,-0.0129,-0.0152,-0.0158,-0.0181,-0.0159,-0.0154,-0.015,-0.014,-0.0165,-0.0161,-0.0199,-0.0199,-0.0199,0,0,0.0031,0.0028,0.003,0.0025,0.0014,0.0022,-0.0009,-0.001,-0.0004,-0.0052,-0.0053,-0.0085,-0.0118,-0.0126,-0.0133,-0.0143,-0.0153,-0.0149,-0.0145,-0.0137,-0.0164,-0.016,-0.0156,-0.0199,-0.0199,-0.0199,0,0,0.0055,0.0048,0.0062,0.006,0.0052,0.0042,0.0045,0.0027,0.0018,0.0012,-0.0021,-0.0043,-0.0074,-0.0094,-0.0109,-0.0093,-0.0129,-0.0103,-0.0062,-0.0086,-0.0083,-0.0081,-0.0109,-0.0109,-0.0099,-0.0099,-0.0099,0,0.0064,0.0081,0.0065,0.0081,0.0085,0.0056,0.0076,0.0066,0.0045,0.0042,0.0021,-0.0023,-0.0057,-0.0063,-0.0061,-0.0081,-0.0102,-0.0079,-0.0079,-0.0078,-0.0076,-0.0105,-0.0106,-0.0096,-0.0096,-0.0096,-0.0097,0,0.01,0.0113,0.0123,0.0136,0.0139,0.015,0.0139,0.0137,0.012,0.0105,0.009,0.0043,0.0021,0.0001,-0.0026,-0.003,-0.0051,-0.0072,-0.009,-0.0068,-0.0101,-0.0103,-0.0091,-0.0092,-0.0093,-0.0094,0,0,0.0123,0.0144,0.0148,0.0169,0.017,0.0182,0.0194,0.0198,0.0213,0.0176,0.0188,0.0138,0.0109,0.009,0.005,0.0024,0.0007,-0.0014,-0.0017,-0.0035,-0.0048,-0.0077,-0.0082,-0.0014,-0.0014,-0.0014,-0.0076,0,0.0155,0.0201,0.0201,0.0247,0.0271,0.0257,0.0276,0.0275,0.0261,0.0264,0.0212,0.0206,0.0146,0.0138,0.0102,0.0038,0.0004,0.0026,-0.0072,-0.0075,-0.0097,-0.0085,-0.0053,-0.0107,-0.0079,-0.0079,-0.008,0,0.0193,0.0221,0.0272,0.0313,0.0323,0.0347,0.0376,0.0391,0.0381,0.037,0.0346,0.0304,0.0269,0.0211,0.0114,0.0132,0.0048,-0.0013,-0.0017,-0.0063,-0.0107,-0.0125,-0.0113,-0.0084,-0.0084,-0.0084,-0.0083,0,0.0228,0.0274,0.032,0.0332,0.037,0.0394,0.0417,0.0423,0.0455,0.0444,0.0464,0.0396,0.0386,0.0276,0.0147,0.0133,0.0032,-0.0003,-0.0112,-0.0116,-0.0118,-0.0121,-0.0082,-0.0082,-0.0082,-0.0081,-0.0081,0,0.0266,0.0304,0.0344,0.037,0.0435,0.0447,0.0512,0.0517,0.0549,0.0606,0.053,0.0557,0.0403,0.0325,0.0183,0.0038,0.0059,-0.0099,-0.013,-0.0097,-0.0098,-0.01,-0.0102,-0.0084,-0.0083,-0.0083,-0.0082,0,0.0296,0.0316,0.038,0.0433,0.0455,0.0507,0.0589,0.0642,0.0658,0.0732,0.0741,0.0689,0.0591,0.0419,0.0244,0.0104,-0.0048,-0.0114,-0.0068,-0.0092,-0.0192,-0.019,-0.0235,-0.0236,-0.0237,-0.0238,-0.0239,0,0.0316,0.0351,0.0429,0.0473,0.0501,0.0578,0.064,0.069,0.0759,0.0821,0.087,0.08,0.0765,0.0493,0.0234,-0.0016,-0.0055,-0.0165,-0.0193,-0.0181,-0.0206,-0.0202,-0.0198,-0.0176,-0.0176,-0.0176,-0.0176,0,0.0357,0.0385,0.0434,0.0524,0.06,0.0697,0.0792,0.0866,0.0944,0.1008,0.1078,0.1055,0.081,0.0568,0.0215,0.0041,-0.0123,-0.0179,-0.0166,-0.0143,-0.0131,-0.0154,-0.0151,-0.0178,-0.0178,-0.0178,-0.0178,-0.0178,0.0388,0.0431,0.0497,0.0588,0.068,0.081,0.0898,0.101,0.1136,0.1243,0.122,0.1195,0.0916,0.0474,0.0174,-0.0142,-0.0134,-0.0249,-0.0246,-0.0243,-0.0226,-0.0216,-0.0277,-0.0278,-0.0278,-0.0278,-0.0278,0,0.043,0.0477,0.0557,0.0675,0.0789,0.0835,0.0996,0.109,0.1245,0.1334,0.1382,0.1123,0.0851,0.053,0.0069,-0.0215,-0.0233,-0.0308,-0.0259,-0.0255,-0.0252,-0.0234,-0.0289,-0.029,-0.029,-0.0291,0,0,0.0452,0.0526,0.0572,0.0753,0.0843,0.0999,0.1098,0.1226,0.1318,0.1401,0.1396,0.1343,0.0961,0.0624,0.0243,-0.0016,-0.0072,-0.0074,-0.0034,0.0073,0.008,-0.0187,-0.0151,0,0,0,0,0]}],[{"header":{"parameterUnit":"m.s-1","parameterCategory":2,"la1":30.2991,"la2":30.254,"lo1":-89.0895,"lo2":-89.0444,"dy":0.0017,"dx":0.0017,"nx":28,"ny":28,"refTime":"2024-03-14T03:00:00:Z","depth":"4","parameterNumber":2,"parameterNumberName":"U-component_of_CURRENTS"},"data":[0,0,0,0,0,0,0,0,0,0,0,0,0,0,0,0,0,0,0,0,0,0,0,0,0,0,0,0,0,0,0,0,0,0,0,0,0,0,0,0,0,0,0,0,0,0,0,0,0,0,0,0,0,0,0,0,0,0,0.1492,0.1493,0,0.1566,0.1567,0.1567,0.1622,0.1622,0.1623,0.1624,0.1693,0.1694,0.1695,0,0,0,0,0,0,0,0,0,0,0,0,0,0.1394,0.1395,0.1492,0.1493,0.1494,0.1566,0.1567,0.1567,0.1622,0.1622,0.1623,0.1624,0.1693,0.1694,0.1695,0,0,0,0,0,0,0,0,0,0,0,0,0,0.1446,0.1396,0.1492,0.1532,0.1536,0.1566,0.1567,0.1568,0.1621,0.1622,0.1624,0.1625,0.1692,0.1694,0.1696,0.1685,0,0,0.1701,0.1702,0,0,0,0,0,0,0,0,0.1443,0.145,0.1525,0.1529,0.1534,0.1588,0.1558,0.1608,0.1621,0.1586,0.1624,0.1625,0.1658,0.1663,0.1671,0.1688,0.1691,0.1701,0.1702,0.1703,0.1703,0,0,0,0,0,0,0,0.144,0.1447,0.1518,0.1526,0.1532,0.1546,0.1554,0.1567,0.1613,0.1589,0.1594,0.1607,0.1661,0.1669,0.1673,0.1692,0.1701,0.1703,0.1704,0.1704,0.1803,0.1805,0,0,0,0,0,0,0.1435,0.1443,0.1516,0.1521,0.1494,0.1547,0.1556,0.1568,0.1613,0.1622,0.1606,0.1609,0.1665,0.1671,0.1675,0.1753,0.1703,0.1704,0.1705,0.1802,0.1804,0.1806,0,0,0,0,0,0,0.1433,0.1441,0.1513,0.1486,0.1497,0.1547,0.156,0.1569,0.161,0.1626,0.1635,0.1643,0.1666,0.1673,0.1721,0.1753,0.1705,0.1707,0.18,0.1802,0.1805,0.1852,0,0,0,0,0,0,0.143,0.144,0.1461,0.1486,0.1498,0.1551,0.156,0.1569,0.1615,0.1621,0.166,0.1666,0.1668,0.1718,0.1722,0.1754,0.1708,0.1798,0.1801,0.1804,0.1848,0.1856,0.1862,0,0,0,0,0,0.1426,0.1443,0.1461,0.1471,0.1521,0.1552,0.156,0.1597,0.1617,0.1638,0.167,0.1666,0.174,0.1721,0.1725,0.1759,0.1797,0.18,0.1804,0.1845,0.1854,0.1862,0,0,0,0,0,0,0.141,0.1451,0.1471,0.1501,0.1536,0.1563,0.1591,0.1614,0.1656,0.1673,0.1684,0.1692,0.1747,0.1746,0.1725,0.1797,0.1769,0.1773,0.1799,0.1807,0.1814,0.1814,0.171,0,0,0,0,0,0.1416,0.1445,0.1481,0.1509,0.1529,0.1566,0.159,0.1617,0.165,0.1672,0.17,0.1731,0.1758,0.1779,0.1801,0.1837,0.1847,0.1863,0.187,0.1876,0.188,0.1933,0.1945,0.1817,0.1817,0.1817,0,0,0.1419,0.1446,0.1465,0.1509,0.154,0.157,0.1584,0.163,0.1663,0.1671,0.1733,0.1758,0.1775,0.182,0.1844,0.1828,0.1917,0.188,0.1885,0.1886,0.1938,0.195,0.1961,0.182,0.1819,0.1819,0,0,0.1427,0.1465,0.1489,0.1521,0.1575,0.1595,0.1615,0.1664,0.1698,0.1753,0.177,0.1817,0.1859,0.1879,0.1891,0.1947,0.1952,0.1961,0.1995,0.2047,0.2057,0.2067,0.2092,0.2104,0.1963,0.1963,0.1963,0,0.1435,0.1467,0.1502,0.1533,0.1566,0.1609,0.1642,0.1676,0.1737,0.1772,0.1783,0.187,0.1884,0.1936,0.1959,0.1962,0.1988,0.1961,0.2055,0.2065,0.2074,0.2097,0.211,0.1966,0.1966,0.1965,0.1965,0,0.1451,0.1493,0.1511,0.1564,0.1601,0.164,0.1688,0.1738,0.1786,0.182,0.1901,0.193,0.1983,0.1995,0.1995,0.2069,0.2065,0.2058,0.2032,0.209,0.2111,0.2122,0.197,0.1969,0.1968,0.1967,0,0,0.1431,0.1508,0.152,0.1554,0.1626,0.1654,0.1718,0.1782,0.1833,0.1898,0.1964,0.2018,0.2051,0.2067,0.2082,0.2122,0.2203,0.2124,0.2126,0.2145,0.2314,0.2172,0.2171,0.2225,0.2227,0.2229,0.2301,0,0.144,0.1496,0.1536,0.1599,0.1634,0.1699,0.175,0.1819,0.1882,0.1953,0.2005,0.207,0.2073,0.2112,0.2157,0.2198,0.2238,0.2184,0.2259,0.226,0.2124,0.2181,0.2237,0.2309,0.2312,0.2314,0.2315,0,0.1441,0.1482,0.1541,0.1626,0.1649,0.1695,0.1797,0.1851,0.1951,0.2006,0.2086,0.2128,0.2209,0.2196,0.2304,0.2277,0.2303,0.2322,0.2326,0.2184,0.214,0.2242,0.2336,0.2335,0.2333,0.2332,0.233,0,0.1398,0.1486,0.1534,0.1564,0.1661,0.1714,0.1774,0.1876,0.193,0.205,0.2108,0.2202,0.227,0.2326,0.2378,0.2359,0.248,0.2453,0.2345,0.2335,0.2419,0.2408,0.2523,0.2523,0.2522,0.2522,0.2522,0,0.1373,0.1418,0.1526,0.155,0.1619,0.1704,0.1789,0.1862,0.197,0.2034,0.2139,0.2201,0.2314,0.2389,0.2412,0.2417,0.2516,0.2358,0.2349,0.2436,0.2426,0.2427,0.2415,0.2525,0.2524,0.2524,0.2523,0,0.1305,0.1378,0.1439,0.1555,0.1598,0.165,0.1782,0.1829,0.1959,0.2048,0.2092,0.2235,0.2336,0.2415,0.2512,0.2452,0.247,0.2444,0.2535,0.2529,0.2277,0.2267,0.2319,0.2314,0.2311,0.2308,0.2305,0,0.1272,0.1297,0.1421,0.1452,0.1507,0.1605,0.1658,0.1804,0.1852,0.2049,0.2068,0.2224,0.2304,0.2326,0.2422,0.2452,0.2426,0.2408,0.2329,0.2272,0.226,0.2255,0.225,0.2299,0.2299,0.2298,0.2297,0,0.1199,0.1252,0.1293,0.1359,0.1426,0.1491,0.1587,0.1614,0.1779,0.1922,0.2001,0.2063,0.2173,0.2241,0.2288,0.2303,0.2401,0.2369,0.2376,0.2302,0.225,0.224,0.2239,0.2284,0.2286,0.2287,0.2288,0,0.1142,0.1142,0.1198,0.1255,0.1319,0.1345,0.1422,0.1494,0.1575,0.179,0.1821,0.1997,0.2151,0.2166,0.2211,0.2216,0.2176,0.2088,0.2109,0.2124,0.2027,0.1931,0.1866,0,0,0,0,0,0.1073,0.1057,0.1085,0.1128,0.1184,0.1239,0.1348,0.1429,0.1606,0.1608,0.1709,0.1802,0.1891,0.1984,0.1951,0.2119,0.2175,0.2069,0.2081,0.2214,0.2229,0.2134,0,0,0,0,0,0,0.1015,0.1024,0.1042,0.1022,0.1029,0.1084,0.1157,0.1278,0.1291,0.1478,0.1536,0.1688,0.1798,0.1894,0.1917,0.1944,0.1911,0.2183,0.2178,0.2206,0.2219,0.2231,0.2138,0,0,0,0,0]},{"header":{"parameterUnit":"m.s-1","parameterCategory":2,"la1":30.2991,"la2":30.254,"lo1":-89.0895,"lo2":-89.0444,"dy":0.0017,"dx":0.0017,"nx":28,"ny":28,"refTime":"2024-03-14T03:00:00:Z","depth":"4","parameterNumber":3,"parameterNumberName":"V-component_of_CURRENTS"},"data":[0,0,0,0,0,0,0,0,0,0,0,0,0,0,0,0,0,0,0,0,0,0,0,0,0,0,0,0,0,0,0,0,0,0,0,0,0,0,0,0,0,0,0,0,0,0,0,0,0,0,0,0,0,0,0,0,0,0,0.0025,0.0025,0,-0.0007,-0.0008,-0.0008,-0.0033,-0.0033,-0.0033,-0.0034,-0.008,-0.0081,-0.0082,0,0,0,0,0,0,0,0,0,0,0,0,0,0.0035,0.0035,0.0025,0.0025,0.0024,-0.0007,-0.0008,-0.0008,-0.0033,-0.0033,-0.0033,-0.0034,-0.008,-0.0081,-0.0082,0,0,0,0,0,0,0,0,0,0,0,0,0,0.0019,0.0035,0.0025,0.0008,0.0007,-0.0007,-0.0008,-0.0008,-0.0033,-0.0033,-0.0033,-0.0034,-0.0079,-0.0081,-0.0082,-0.0087,0,0,-0.0087,-0.0088,0,0,0,0,0,0,0,0,0.002,0.0019,0.0011,0.001,0.0008,-0.0016,-0.0021,-0.0035,-0.0033,-0.0018,-0.0034,-0.0034,-0.0059,-0.0063,-0.0069,-0.0089,-0.0091,-0.0088,-0.0088,-0.0089,-0.009,0,0,0,0,0,0,0,0.0021,0.002,0.0012,0.0011,0.0009,-0.0008,-0.001,-0.0024,-0.0038,-0.002,-0.0021,-0.0024,-0.0061,-0.0067,-0.007,-0.0091,-0.0087,-0.0089,-0.009,-0.009,-0.0118,-0.0118,0,0,0,0,0,0,0.0028,0.0021,0.0013,0.0011,0.0014,-0.0007,-0.001,-0.0008,-0.0037,-0.0042,-0.0024,-0.0025,-0.0064,-0.0068,-0.0072,-0.007,-0.0089,-0.0091,-0.0092,-0.0118,-0.0118,-0.0118,0,0,0,0,0,0,0.0028,0.0028,0.0014,0.0015,0.0012,-0.0007,-0.0005,-0.0009,-0.0015,-0.004,-0.0045,-0.0025,-0.0065,-0.0069,-0.0079,-0.0072,-0.0091,-0.0093,-0.0119,-0.0118,-0.0118,-0.0072,0,0,0,0,0,0,0.0029,0.0028,0.0031,0.0016,0.0013,0.0012,-0.0005,-0.0009,-0.0016,-0.0018,-0.0043,-0.0048,-0.0065,-0.0077,-0.0081,-0.0075,-0.0094,-0.0119,-0.0118,-0.0118,-0.0074,-0.007,-0.0067,0,0,0,0,0,0.0029,0.0038,0.0031,0.003,0.0017,0.0012,0.0009,-0.0006,-0.0015,-0.0013,-0.003,-0.0047,-0.0077,-0.0078,-0.0083,-0.0077,-0.0119,-0.0119,-0.0118,-0.0075,-0.0071,-0.0067,0,0,0,0,0,0,0.0044,0.0036,0.0028,0.0034,0.0025,0.0008,0.0008,-0.0003,-0.0015,-0.0017,-0.0043,-0.0048,-0.0055,-0.0072,-0.0072,-0.0084,-0.0102,-0.0102,-0.0067,-0.0063,-0.006,-0.005,-0.0095,0,0,0,0,0,0.0048,0.0053,0.0041,0.0045,0.0043,0.0026,0.0021,0.0012,-0.0,-0.0006,-0.0025,-0.0044,-0.0057,-0.0065,-0.0081,-0.0085,-0.0111,-0.0086,-0.0082,-0.0079,-0.0075,-0.0106,-0.0105,-0.0116,-0.0116,-0.0116,0,0,0.0054,0.0051,0.0053,0.0048,0.004,0.0046,0.0022,0.0021,0.0026,-0.0009,-0.001,-0.0032,-0.0056,-0.0062,-0.0066,-0.0074,-0.0091,-0.0079,-0.0076,-0.0073,-0.0106,-0.0105,-0.0104,-0.0116,-0.0116,-0.0116,0,0,0.0072,0.0067,0.0077,0.0075,0.0069,0.0061,0.0063,0.0049,0.0042,0.0039,0.0014,-0.0002,-0.0023,-0.0039,-0.0049,-0.0037,-0.0073,-0.0044,-0.0017,-0.0048,-0.0047,-0.0047,-0.0082,-0.0086,-0.0041,-0.0041,-0.0041,0,0.0079,0.0091,0.0079,0.009,0.0093,0.0072,0.0086,0.0079,0.0063,0.006,0.0045,0.0011,-0.0011,-0.0019,-0.0015,-0.0028,-0.0055,-0.0029,-0.0043,-0.0043,-0.0044,-0.008,-0.0085,-0.0039,-0.0039,-0.0039,-0.004,0,0.0105,0.0114,0.0121,0.013,0.0133,0.0141,0.0133,0.0132,0.0119,0.0107,0.0093,0.006,0.004,0.0028,0.0011,-0.0001,-0.0023,-0.0035,-0.0051,-0.004,-0.0079,-0.0085,-0.0036,-0.0037,-0.0037,-0.0038,0,0,0.0119,0.0136,0.0139,0.0153,0.0156,0.0164,0.0174,0.0175,0.0184,0.0156,0.0157,0.0125,0.01,0.0086,0.0057,0.0029,-0.0001,-0.0001,-0.0004,-0.0033,-0.0075,-0.0078,-0.0084,-0.0017,-0.0018,-0.0018,-0.0102,0,0.0141,0.0174,0.0176,0.0209,0.0225,0.0217,0.0232,0.023,0.0219,0.0213,0.0172,0.0162,0.0126,0.0116,0.0082,0.0022,-0.0012,0.0023,-0.0084,-0.0088,-0.0089,-0.0089,-0.002,-0.0106,-0.0108,-0.0108,-0.0109,0,0.0165,0.0185,0.0221,0.0253,0.026,0.0278,0.0298,0.031,0.0296,0.0284,0.0259,0.0223,0.0183,0.0149,0.0051,0.0074,0.0005,-0.0047,-0.0052,-0.0073,-0.01,-0.0121,-0.0119,-0.0118,-0.0118,-0.0117,-0.0116,0,0.0181,0.0217,0.025,0.026,0.029,0.0308,0.0328,0.033,0.0351,0.0331,0.0333,0.0272,0.0247,0.0156,0.005,0.0048,-0.0066,-0.0083,-0.0154,-0.0156,-0.0148,-0.0148,-0.0157,-0.0157,-0.0157,-0.0156,-0.0156,0,0.0201,0.0228,0.0263,0.0282,0.0331,0.0342,0.0388,0.0394,0.0408,0.0439,0.0376,0.0374,0.0248,0.0169,0.0062,-0.0059,-0.0059,-0.015,-0.0175,-0.0128,-0.0124,-0.0153,-0.0151,-0.0159,-0.0159,-0.0158,-0.0158,0,0.0211,0.0231,0.0277,0.0321,0.034,0.0379,0.0443,0.0478,0.048,0.0516,0.0513,0.0449,0.0346,0.021,0.0057,-0.0031,-0.0154,-0.02,-0.0141,-0.0162,-0.023,-0.0225,-0.0287,-0.0288,-0.0288,-0.0289,-0.0289,0,0.022,0.0243,0.0309,0.0348,0.0372,0.0432,0.048,0.0512,0.0554,0.0565,0.0586,0.0499,0.0436,0.0223,0.0069,-0.0142,-0.0172,-0.0243,-0.0237,-0.0224,-0.0242,-0.0236,-0.0231,-0.029,-0.0291,-0.0291,-0.0291,0,0.0242,0.0265,0.0305,0.0385,0.0446,0.0517,0.0586,0.0619,0.0661,0.066,0.065,0.0538,0.0418,0.0239,0.0071,-0.0079,-0.02,-0.025,-0.025,-0.0245,-0.0229,-0.0245,-0.0239,-0.0293,-0.0293,-0.0293,-0.0292,0,0.0263,0.0295,0.0355,0.0425,0.0507,0.0587,0.0615,0.0669,0.0708,0.0717,0.0711,0.0577,0.0499,0.0271,0.012,-0.0032,-0.0075,-0.0126,-0.0133,-0.0133,-0.0066,-0.0021,-0.0042,0,0,0,0,0,0.0285,0.0326,0.0394,0.0478,0.056,0.0609,0.0687,0.071,0.0741,0.0748,0.0735,0.0625,0.0405,0.0307,0.0155,0.009,-0.0115,-0.0096,-0.0181,-0.0305,-0.0303,-0.025,0,0,0,0,0,0,0.0302,0.0364,0.0397,0.0514,0.0575,0.0673,0.0723,0.0742,0.0744,0.0746,0.0634,0.0582,0.0366,0.0495,0.0152,0.0104,0.0028,-0.0199,-0.0202,-0.0307,-0.0304,-0.0302,-0.0248,0,0,0,0,0]}]]